Regional Weather Roundup
Issued by NWS Sterling, VA

Home | Current Version | Previous Version | Text Only | Print | Product List | Glossary On
Versions: 1 2 3 4 5 6 7 8 9 10 11 12 13 14 15 16 17 18 19 20 21 22 23 24 25 26 27 28 29 30 31 32 33 34 35 36 37 38 39 40 41 42 43 44 45 46 47 48 49 50
000
ASUS41 KLWX 301110
RWRLWX

REGIONAL WEATHER ROUNDUP
NATIONAL WEATHER SERVICE BALTIMORE MD/WASHINGTON DC
700 AM EDT MON MAY 30 2016

Note: "FAIR" indicates few or no clouds below 12,000 feet
with no significant weather and/or obstructions to visibility.
 TC=TEMPERATURE CELSIUS

 * =Non NWS site. Station does not report precipitation (e.g. rain,
    snow, etc.), thunder, or fog.

DCZ001-MDZ009-015-VAZ040>042-051-053>054-301200-
WASHINGTON METRO

CITY           SKY/WX    TMP DP  RH WIND       PRES   REMARKS
WASHINGTON NAT PTSUNNY   69  65  86 E6        30.02R
DULLES         PTSUNNY   67  63  87 CALM      30.03R
ANDREWS AFB    CLOUDY    68  65  91 NE3       30.01S
FT BELVOIR     FAIR      67  66  97 CALM      30.02R
QUANTICO       CLOUDY    70  67  90 NW5       30.02S
COLLEGE PARK*  FAIR      66  64  94 CALM      30.02R
LEESBURG*      FAIR      66  66 100 CALM      30.04R
MANASSAS*      PTSUNNY   66  66 100 CALM      30.02R

$$

MDZ006>007-011-014-301200-
BALTIMORE METRO

CITY           SKY/WX    TMP DP  RH WIND       PRES   REMARKS
BWI AIRPORT    PTSUNNY   68  64  87 NW3       30.02R
MD SCIENCE CTR   N/A     71  63  75 MISG      30.03R
MARTIN STATE   PTSUNNY   70  70 100 CALM      30.03R
ANNAPOLIS      CLOUDY    69  66  90 CALM      30.01S
FORT MEADE*    PTSUNNY   64  63  94 CALM      30.05R

$$

MDZ012-015-019>023-301200-
MARYLAND EASTERN SHORE

CITY           SKY/WX    TMP DP  RH WIND       PRES   REMARKS
OCEAN CITY     RAIN      71  70  96 S8        30.02S FOG
SALISBURY      CLOUDY    72  71  97 S5        30.01S
BAY BRIDGE AP* CLOUDY    70  66  88 CALM      30.01S
CAMBRIDGE*     CLOUDY    72  72 100 SW3       30.01R
EASTON*        CLOUDY    72  72 100 CALM      30.05R

$$

MDZ017>025-301200-
SOUTHERN MARYLAND

CITY           SKY/WX    TMP DP  RH WIND       PRES   REMARKS
PATUXENT RIVER CLOUDY    70  68  93 NE5       30.01R FOG
ST INIGOES     CLOUDY    73  72  96 S3        30.01R
LEONARDTOWN*   CLOUDY    70  68  94 CALM      30.03S VSB 1/2

$$

MDZ003>005-301200-
NORTH CENTRAL MARYLAND

CITY           SKY/WX    TMP DP  RH WIND       PRES   REMARKS
FREDERICK*     PTSUNNY   64  64 100 CALM      30.06R
HAGERSTOWN APT CLOUDY    65  63  93 SE3       30.04R FOG
WESTMINSTER*   CLOUDY    64  61  88 CALM      30.04R

$$

MDZ501>502-301200-
WESTERN MARYLAND

CITY           SKY/WX    TMP DP  RH WIND       PRES   REMARKS
OAKLAND*       MOSUNNY   59  54  82 W6        30.11R
CUMBERLAND*    PTSUNNY   63  63 100 CALM      30.08S

$$

VAZ025>031-301200-
SHENANDOAH VALLEY

CITY           SKY/WX    TMP DP  RH WIND       PRES   REMARKS
WINCHESTER*    CLOUDY    63  61  94 CALM      30.05R
FRONT ROYAL*   PTSUNNY   61  61 100 S3        30.04R
LURAY*         FAIR      61  61 100 CALM      30.06R
NEW MARKET*    CLOUDY    60  60 100 CALM      30.05S
STAUNTON*      FAIR      58  58  99 CALM      30.08S FOG
WAYNESBORO*    PTSUNNY   58  57  96 CALM      30.08R

$$

WVZ021-048>050-054>055-301200-
EASTERN WEST VIRGINIA PANHANDLE

CITY           SKY/WX    TMP DP  RH WIND       PRES   REMARKS
MARTINSBURG    CLOUDY    63  62  97 SE3       30.04R FOG
PETERSBURG*    PTSUNNY   60  59  97 CALM      30.07S

$$

VAZ036>039-050-301200-
CENTRAL FOOTHILLS

CITY           SKY/WX    TMP DP  RH WIND       PRES   REMARKS
CHARLOTTESVILL CLOUDY    65  61  87 NW3       30.03S
CULPEPER*      CLOUDY    66  66 100 CALM      30.04R FOG
ORANGE*        PTSUNNY   64  64 100 CALM      30.05R
GORDONSVILLE*  FAIR      63  63 100 CALM      30.02S FOG
WARRENTON*     CLOUDY    66  62  86 CALM      30.02R FOG

$$

VAZ055>057-301200-
NORTH AND CENTRAL PIEDMONT

CITY           SKY/WX    TMP DP  RH WIND       PRES   REMARKS
FREDERICKSBRG* CLOUDY    68  68 100 CALM      30.01S
STAFFORD*      CLOUDY    65  64  96 CALM      30.06R

$$

NCZ024-NYZ072-PAZ021-071-VAZ022-071-301200-
OTHER REGIONAL OBSERVATIONS

CITY           SKY/WX    TMP DP  RH WIND       PRES   REMARKS
NEW YORK CITY  LGT RAIN  70  68  93 CALM      30.01F FOG
PHILADELPHIA   CLOUDY    72  69  90 NW5       30.01S
PITTSBURGH     CLOUDY    63  59  87 CALM      30.02S FOG
ROANOKE        CLOUDY    61  59  93 NE5       30.09R
RICHMOND       FOG       67  67 100 N5        30.02R VSB 1
RALEIGH        FOG       67  65  93 CALM      30.01R VSB 1/4

$$

ANZ530>537-301200-
MARINE OBSERVATIONS

STATION/POSITION TIME  TEMP    WIND        PRES
                       AIR SEA DIR/SP/G
                 (UTC) (F)     (DEG/KT/KT) (MB)
THOMAS PT LIGHT  1100   69 68   10/  3/  4 1017.6R
BALT KEY BRIDGE  1000   69     340/  3/  4 1015.9R
COVE POINT       1000   67     350/  7/  7 1016.5R
LEWISETTA        1000   73 70   CALM  /  2 1015.5R
SOLOMONS ISLAND  1000   71 68  330/  4/  5   N/A
PINEY POINT      1000          240/  5/  5   N/A

$$




USA.gov is the U.S. government's official web portal to all federal, state and local government web resources and services.